• In Czech Republic
  • List of Countries
  • For 7 days
  • Water Temperature
  • Satellite Maps
  • Weather Map
  • Weather Widgets
  • user-avatar
    Login

    Hourly Weather Newcastle upon Tyne

    Today, 23 February, Friday

    Time Temperature Precipitation Wind Pressure Humidity
    00:00 -2°C° 0 mm 4 mps 762 mmHg 81%
    01:00 -2°C° 0 mm 4 mps 761 mmHg 80%
    02:00 -2°C° 0 mm 4 mps 761 mmHg 79%
    03:00 -2°C° 0 mm 4 mps 761 mmHg 79%
    04:00 -2°C° 0 mm 4 mps 761 mmHg 79%
    05:00 -2°C° 0 mm 4 mps 761 mmHg 80%
    06:00 -2°C° 0 mm 4 mps 761 mmHg 81%
    07:00 -1°C° 0 mm 4 mps 761 mmHg 79%
    08:00 -1°C° 0 mm 4 mps 761 mmHg 77%
    09:00 0°C° 0 mm 5 mps 761 mmHg 76%
    10:00 +1°C° 0 mm 5 mps 761 mmHg 71%
    11:00 +2°C° 0 mm 5 mps 761 mmHg 67%
    12:00 +3°C° 0 mm 6 mps 761 mmHg 63%
    13:00 +3°C° 0 mm 6 mps 761 mmHg 63%
    14:00 +3°C° 0 mm 6 mps 760 mmHg 64%
    15:00 +3°C° 0 mm 6 mps 760 mmHg 65%
    16:00 +2°C° 0 mm 6 mps 760 mmHg 70%
    17:00 +1°C° 0 mm 6 mps 760 mmHg 76%
    18:00 -1°C° 0 mm 6 mps 760 mmHg 81%
    19:00 -2°C° 0 mm 6 mps 760 mmHg 83%
    20:00 -2°C° 0 mm 6 mps 761 mmHg 84%
    21:00 -2°C° 0 mm 6 mps 761 mmHg 86%
    22:00 -3°C° 0 mm 6 mps 761 mmHg 85%
    23:00 -3°C° 0 mm 6 mps 761 mmHg 84%

    Tomorrow, 24 February, Saturday

    Time Temperature Precipitation Wind Pressure Humidity
    00:00 -3°C° 0 mm 6 mps 761 mmHg 83%
    01:00 -3°C° 0 mm 6 mps 761 mmHg 83%
    02:00 -3°C° 0 mm 6 mps 761 mmHg 82%
    03:00 -3°C° 0 mm 6 mps 761 mmHg 82%
    04:00 -3°C° 0 mm 6 mps 761 mmHg 80%
    05:00 -3°C° 0 mm 6 mps 761 mmHg 78%
    06:00 -3°C° 0 mm 6 mps 762 mmHg 76%
    07:00 -2°C° 0 mm 6 mps 762 mmHg 71%
    08:00 -1°C° 0 mm 7 mps 762 mmHg 66%
    09:00 -1°C° 0 mm 7 mps 763 mmHg 61%
    10:00 0°C° 0 mm 7 mps 763 mmHg 58%
    11:00 +1°C° 0 mm 8 mps 763 mmHg 55%
    12:00 +2°C° 0 mm 8 mps 764 mmHg 52%
    13:00 +2°C° 0 mm 8 mps 764 mmHg 54%
    14:00 +2°C° 0 mm 8 mps 763 mmHg 56%
    15:00 +2°C° 0 mm 8 mps 763 mmHg 58%
    16:00 +1°C° 0 mm 8 mps 764 mmHg 64%
    17:00 0°C° 0 mm 7 mps 764 mmHg 71%
    18:00 -1°C° 0 mm 7 mps 764 mmHg 77%
    19:00 -1°C° 0 mm 6 mps 765 mmHg 79%
    20:00 -2°C° 0 mm 6 mps 765 mmHg 81%
    21:00 -2°C° 0 mm 6 mps 766 mmHg 83%
    22:00 -2°C° 0 mm 6 mps 766 mmHg 83%
    23:00 -2°C° 0 mm 6 mps 766 mmHg 82%

    Day after tomorrow, 25 February, Sunday

    Time Temperature Precipitation Wind Pressure Humidity
    00:00 -2°C° 0 mm 6 mps 766 mmHg 81%
    01:00 -2°C° 0 mm 6 mps 766 mmHg 81%
    02:00 -1°C° 0 mm 5 mps 766 mmHg 81%
    03:00 -2°C° 0 mm 5 mps 767 mmHg 80%
    04:00 -2°C° 0 mm 5 mps 767 mmHg 80%
    05:00 -2°C° 0 mm 5 mps 767 mmHg 80%
    06:00 -2°C° 0 mm 5 mps 767 mmHg 80%
    07:00 -1°C° 0 mm 5 mps 767 mmHg 75%
    08:00 -2°C° 0 mm 6 mps 767 mmHg 70%
    09:00 -1°C° 0 mm 6 mps 768 mmHg 66%
    10:00 -1°C° 0 mm 6 mps 768 mmHg 62%
    11:00 +1°C° 0 mm 6 mps 768 mmHg 58%
    12:00 +2°C° 0 mm 6 mps 768 mmHg 54%
    13:00 +2°C° 0 mm 6 mps 768 mmHg 54%
    14:00 +2°C° 0 mm 6 mps 768 mmHg 54%
    15:00 +2°C° 0 mm 6 mps 768 mmHg 54%
    16:00 -1°C° 0 mm 6 mps 768 mmHg 59%
    17:00 -1°C° 0 mm 5 mps 768 mmHg 63%
    18:00 -2°C° 0 mm 5 mps 769 mmHg 68%
    19:00 -2°C° 0 mm 5 mps 769 mmHg 71%
    20:00 -2°C° 0 mm 4 mps 769 mmHg 74%
    21:00 -3°C° 0 mm 4 mps 769 mmHg 76%
    22:00 -3°C° 0 mm 4 mps 769 mmHg 77%
    23:00 -3°C° 0 mm 4 mps 769 mmHg 78%

    26 February, Monday

    Time Temperature Precipitation Wind Pressure Humidity
    00:00 -1°C° 0 mm 3 mps 769 mmHg 79%
    01:00 -1°C° 0 mm 3 mps 769 mmHg 79%
    02:00 -1°C° 0 mm 3 mps 769 mmHg 80%
    03:00 -1°C° 0 mm 2 mps 769 mmHg 80%
    04:00 -1°C° 0 mm 2 mps 769 mmHg 81%
    05:00 -1°C° 0 mm 2 mps 769 mmHg 81%
    06:00 -1°C° 0 mm 2 mps 769 mmHg 81%
    07:00 -1°C° 0.1 mm 3 mps 769 mmHg 78%
    08:00 0°C° 0.1 mm 3 mps 770 mmHg 75%
    09:00 0°C° 0.1 mm 4 mps 770 mmHg 72%
    10:00 0°C° 0.1 mm 5 mps 770 mmHg 68%
    11:00 +1°C° 0.1 mm 5 mps 770 mmHg 65%
    12:00 +1°C° 0.1 mm 6 mps 770 mmHg 61%
    13:00 +1°C° 0 mm 6 mps 770 mmHg 61%
    14:00 +1°C° 0 mm 6 mps 770 mmHg 60%
    15:00 +1°C° 0 mm 6 mps 770 mmHg 59%
    16:00 0°C° 0 mm 5 mps 770 mmHg 64%
    17:00 -1°C° 0 mm 5 mps 770 mmHg 69%
    18:00 -2°C° 0 mm 4 mps 770 mmHg 74%
    19:00 -2°C° 0 mm 4 mps 770 mmHg 74%
    20:00 -2°C° 0 mm 4 mps 770 mmHg 75%
    21:00 -2°C° 0 mm 4 mps 770 mmHg 76%
    22:00 -1°C° 0.1 mm 3 mps 769 mmHg 77%
    23:00 -1°C° 0.1 mm 3 mps 769 mmHg 78%

    27 February, Tuesday

    Time Temperature Precipitation Wind Pressure Humidity
    00:00 -1°C° 0.1 mm 3 mps 769 mmHg 79%
    01:00 -2°C° 0.1 mm 4 mps 768 mmHg 79%
    02:00 -2°C° 0.1 mm 4 mps 767 mmHg 80%
    03:00 -2°C° 0.1 mm 5 mps 767 mmHg 81%
    04:00 -3°C° 0.1 mm 6 mps 766 mmHg 82%
    05:00 -3°C° 0.1 mm 6 mps 765 mmHg 82%
    06:00 -3°C° 0.1 mm 7 mps 765 mmHg 83%
    07:00 -3°C° 0.2 mm 7 mps 764 mmHg 80%
    08:00 -2°C° 0.2 mm 7 mps 764 mmHg 78%
    09:00 -2°C° 0.2 mm 7 mps 763 mmHg 76%
    10:00 -2°C° 0.9 mm 7 mps 763 mmHg 79%
    11:00 -2°C° 0.9 mm 7 mps 763 mmHg 82%
    12:00 -2°C° 0.9 mm 7 mps 763 mmHg 86%
    13:00 -2°C° 0.2 mm 7 mps 763 mmHg 82%
    14:00 -2°C° 0.2 mm 6 mps 762 mmHg 79%
    15:00 -2°C° 0.2 mm 6 mps 762 mmHg 75%
    16:00 -3°C° 0.1 mm 6 mps 762 mmHg 77%
    17:00 -4°C° 0.1 mm 6 mps 762 mmHg 78%
    18:00 -4°C° 0.1 mm 5 mps 762 mmHg 79%
    19:00 -4°C° 0.2 mm 5 mps 762 mmHg 79%
    20:00 -4°C° 0.2 mm 5 mps 762 mmHg 79%
    21:00 -5°C° 0.2 mm 5 mps 763 mmHg 79%
    22:00 -5°C° 0.2 mm 5 mps 762 mmHg 79%
    23:00 -5°C° 0.2 mm 5 mps 762 mmHg 79%

    28 February, Wednesday

    Time Temperature Precipitation Wind Pressure Humidity
    00:00 -5°C° 0.2 mm 5 mps 762 mmHg 80%
    01:00 -5°C° 0.1 mm 5 mps 761 mmHg 80%
    02:00 -4°C° 0.1 mm 4 mps 761 mmHg 81%
    03:00 -5°C° 0.1 mm 4 mps 760 mmHg 81%
    04:00 -5°C° 0.1 mm 4 mps 760 mmHg 81%
    05:00 -5°C° 0.1 mm 4 mps 760 mmHg 81%
    06:00 -5°C° 0.1 mm 4 mps 759 mmHg 80%
    07:00 -4°C° 0.1 mm 4 mps 759 mmHg 79%
    08:00 -4°C° 0.1 mm 4 mps 759 mmHg 77%
    09:00 -4°C° 0.1 mm 4 mps 758 mmHg 76%
    10:00 -5°C° 0.1 mm 5 mps 758 mmHg 74%
    11:00 -4°C° 0.1 mm 5 mps 757 mmHg 72%
    12:00 -4°C° 0.1 mm 5 mps 757 mmHg 70%
    13:00 -4°C° 0.1 mm 5 mps 756 mmHg 70%
    14:00 -4°C° 0.1 mm 5 mps 756 mmHg 69%
    15:00 -4°C° 0.1 mm 5 mps 755 mmHg 69%
    16:00 -5°C° 0.1 mm 5 mps 755 mmHg 72%
    17:00 -6°C° 0.1 mm 5 mps 755 mmHg 75%
    18:00 -7°C° 0.1 mm 4 mps 755 mmHg 78%
    19:00 -7°C° 0.2 mm 5 mps 755 mmHg 80%
    20:00 -7°C° 0.2 mm 5 mps 755 mmHg 81%
    21:00 -7°C° 0.2 mm 5 mps 755 mmHg 82%
    22:00 -8°C° 0.5 mm 6 mps 755 mmHg 84%
    23:00 -8°C° 0.5 mm 6 mps 755 mmHg 85%
    Show more